Time,TemperatureF,DewpointF,PressureIn,WindDirection,WindDirectionDegrees,WindSpeedMPH,WindSpeedGustMPH,Humidity,HourlyPrecipIn,Conditions,Clouds,dailyrainin,SoftwareType,DateUTC
2013-02-12 00:06:00,33.8,33.3,29.54,SE,135,0.0,-999.0,98,-99.99,,,0.00,Acu-Link.com,2013-02-12 05:06:00,
2013-02-12 00:21:00,33.8,33.3,29.54,South,180,0.0,-999.0,98,-99.99,,,0.00,Acu-Link.com,2013-02-12 05:21:00,
2013-02-12 00:37:00,33.8,33.3,29.54,NNE,22,0.0,-999.0,98,-99.99,,,0.00,Acu-Link.com,2013-02-12 05:37:00,
2013-02-12 00:52:00,33.8,33.3,29.54,South,180,0.0,-999.0,98,-99.99,,,0.00,Acu-Link.com,2013-02-12 05:52:00,
2013-02-12 01:07:00,33.8,33.3,29.53,East,90,0.0,-999.0,98,-99.99,,,0.00,Acu-Link.com,2013-02-12 06:07:00,
2013-02-12 01:22:00,33.8,33.3,29.53,ESE,112,0.0,-999.0,98,-99.99,,,0.00,Acu-Link.com,2013-02-12 06:22:00,
2013-02-12 01:37:00,33.8,33.3,29.53,East,90,1.1,-999.0,98,-99.99,,,0.00,Acu-Link.com,2013-02-12 06:37:00,
2013-02-12 01:52:00,33.8,33.3,29.54,WSW,247,0.0,-999.0,98,-99.99,,,0.00,Acu-Link.com,2013-02-12 06:52:00,
2013-02-12 02:07:00,33.8,33.3,29.54,ESE,112,0.0,-999.0,98,-99.99,,,0.00,Acu-Link.com,2013-02-12 07:07:00,
2013-02-12 02:23:00,33.8,33.3,29.54,ESE,112,0.0,-999.0,98,-99.99,,,0.00,Acu-Link.com,2013-02-12 07:23:00,
2013-02-12 02:38:00,33.8,33.3,29.54,SSE,157,0.0,-999.0,98,-99.99,,,0.00,Acu-Link.com,2013-02-12 07:38:00,
2013-02-12 02:53:00,33.8,33.3,29.54,SE,135,0.0,-999.0,98,-99.99,,,0.00,Acu-Link.com,2013-02-12 07:53:00,
2013-02-12 03:22:00,33.8,33.3,29.54,ESE,112,0.0,-999.0,98,-99.99,,,0.00,Acu-Link.com,2013-02-12 08:22:00,
2013-02-12 03:37:00,33.8,33.3,29.54,SSE,157,0.0,-999.0,98,-99.99,,,0.00,Acu-Link.com,2013-02-12 08:37:00,
2013-02-12 03:53:00,33.8,33.3,29.53,WNW,292,0.0,-999.0,98,-99.99,,,0.00,Acu-Link.com,2013-02-12 08:53:00,
2013-02-12 04:19:00,33.8,33.3,29.54,East,90,0.0,-999.0,98,-99.99,,,0.00,Acu-Link.com,2013-02-12 09:19:00,
2013-02-12 04:34:00,33.8,33.3,29.54,WSW,247,0.0,-999.0,98,-99.99,,,0.00,Acu-Link.com,2013-02-12 09:34:00,
2013-02-12 04:49:00,33.8,33.3,29.53,SSE,157,0.0,-999.0,98,-99.99,,,0.00,Acu-Link.com,2013-02-12 09:49:00,
2013-02-12 05:04:00,33.8,33.3,29.54,South,180,2.0,-999.0,98,-99.99,,,0.00,Acu-Link.com,2013-02-12 10:04:00,
2013-02-12 05:19:00,33.8,33.3,29.54,ESE,112,0.0,-999.0,98,-99.99,,,0.00,Acu-Link.com,2013-02-12 10:19:00,
2013-02-12 05:35:00,33.8,33.3,29.55,South,180,0.0,-999.0,98,-99.99,,,0.00,Acu-Link.com,2013-02-12 10:35:00,
2013-02-12 05:50:00,35.6,35.1,29.55,WNW,292,0.0,-999.0,98,-99.99,,,0.00,Acu-Link.com,2013-02-12 10:50:00,
2013-02-12 06:05:00,35.6,35.1,29.55,East,90,2.0,-999.0,98,-99.99,,,0.00,Acu-Link.com,2013-02-12 11:05:00,
2013-02-12 06:20:00,35.6,35.1,29.55,West,270,3.1,-999.0,98,-99.99,,,0.00,Acu-Link.com,2013-02-12 11:20:00,
2013-02-12 06:35:00,35.6,35.1,29.56,NNW,337,3.1,-999.0,98,-99.99,,,0.00,Acu-Link.com,2013-02-12 11:35:00,
2013-02-12 06:50:00,37.4,36.9,29.56,WSW,247,3.1,-999.0,98,-99.99,,,0.00,Acu-Link.com,2013-02-12 11:50:00,
2013-02-12 07:05:00,37.4,36.9,29.56,WNW,292,4.0,-999.0,98,-99.99,,,0.00,Acu-Link.com,2013-02-12 12:05:00,
2013-02-12 07:20:00,37.4,36.9,29.57,SW,225,2.7,-999.0,98,-99.99,,,0.00,Acu-Link.com,2013-02-12 12:20:00,
2013-02-12 07:36:00,37.4,36.9,29.57,West,270,2.7,-999.0,98,-99.99,,,0.00,Acu-Link.com,2013-02-12 12:36:00,
2013-02-12 07:51:00,37.4,36.9,29.58,WNW,292,2.0,-999.0,98,-99.99,,,0.00,Acu-Link.com,2013-02-12 12:51:00,
2013-02-12 08:06:00,37.4,36.9,29.59,ESE,112,2.7,-999.0,98,-99.99,,,0.00,Acu-Link.com,2013-02-12 13:06:00,
2013-02-12 08:21:00,37.4,36.9,29.59,NNE,22,1.1,-999.0,98,-99.99,,,0.00,Acu-Link.com,2013-02-12 13:21:00,
2013-02-12 08:36:00,37.4,36.9,29.60,ESE,112,2.7,-999.0,98,-99.99,,,0.00,Acu-Link.com,2013-02-12 13:36:00,
2013-02-12 08:52:00,37.4,36.9,29.61,West,270,5.6,-999.0,98,-99.99,,,0.00,Acu-Link.com,2013-02-12 13:52:00,
2013-02-12 09:07:00,37.4,36.9,29.62,ESE,112,2.0,-999.0,98,-99.99,,,0.00,Acu-Link.com,2013-02-12 14:07:00,
2013-02-12 09:22:00,37.4,36.9,29.62,NW,315,3.1,-999.0,98,-99.99,,,0.00,Acu-Link.com,2013-02-12 14:22:00,
2013-02-12 09:37:00,37.4,36.9,29.63,West,270,1.6,-999.0,98,-99.99,,,0.00,Acu-Link.com,2013-02-12 14:37:00,
2013-02-12 09:52:00,37.4,36.9,29.64,NW,315,5.6,-999.0,98,-99.99,,,0.00,Acu-Link.com,2013-02-12 14:52:00,
2013-02-12 10:08:00,37.4,36.9,29.64,ESE,112,1.6,-999.0,98,-99.99,,,0.00,Acu-Link.com,2013-02-12 15:08:00,
2013-02-12 10:23:00,37.4,36.9,29.64,WNW,292,3.1,-999.0,98,-99.99,,,0.00,Acu-Link.com,2013-02-12 15:23:00,
2013-02-12 10:38:00,39.2,38.7,29.64,ESE,112,2.7,-999.0,98,-99.99,,,0.00,Acu-Link.com,2013-02-12 15:38:00,
2013-02-12 10:54:00,39.2,38.7,29.65,SSE,157,3.6,-999.0,98,-99.99,,,0.00,Acu-Link.com,2013-02-12 15:54:00,
2013-02-12 11:09:00,39.2,38.7,29.65,WSW,247,7.8,-999.0,98,-99.99,,,0.00,Acu-Link.com,2013-02-12 16:09:00,
2013-02-12 11:24:00,37.4,36.9,29.66,WNW,292,4.7,-999.0,98,-99.99,,,0.00,Acu-Link.com,2013-02-12 16:24:00,
2013-02-12 11:39:00,39.2,38.7,29.66,NNW,337,4.0,-999.0,98,-99.99,,,0.00,Acu-Link.com,2013-02-12 16:39:00,
2013-02-12 11:55:00,39.2,38.7,29.66,SW,225,2.7,-999.0,98,-99.99,,,0.00,Acu-Link.com,2013-02-12 16:55:00,
2013-02-12 12:10:00,39.2,38.7,29.66,SSE,157,2.0,-999.0,98,-99.99,,,0.00,Acu-Link.com,2013-02-12 17:10:00,
2013-02-12 12:25:00,39.2,38.7,29.67,West,270,3.1,-999.0,98,-99.99,,,0.00,Acu-Link.com,2013-02-12 17:25:00,
2013-02-12 12:40:00,39.2,38.7,29.67,NW,315,2.7,-999.0,98,-99.99,,,0.00,Acu-Link.com,2013-02-12 17:40:00,
2013-02-12 12:55:00,39.2,38.7,29.67,North,0,2.7,-999.0,98,-99.99,,,0.00,Acu-Link.com,2013-02-12 17:55:00,
2013-02-12 13:10:00,37.4,36.9,29.67,West,270,5.6,-999.0,98,-99.99,,,0.00,Acu-Link.com,2013-02-12 18:10:00,
2013-02-12 13:25:00,37.4,36.9,29.68,West,270,3.6,-999.0,98,-99.99,,,0.00,Acu-Link.com,2013-02-12 18:25:00,
2013-02-12 13:41:00,37.4,36.9,29.68,NE,45,3.1,-999.0,98,-99.99,,,0.00,Acu-Link.com,2013-02-12 18:41:00,
2013-02-12 13:56:00,37.4,36.9,29.69,WSW,247,4.7,-999.0,98,-99.99,,,0.00,Acu-Link.com,2013-02-12 18:56:00,
2013-02-12 14:11:00,37.4,36.9,29.69,WNW,292,5.6,-999.0,98,-99.99,,,0.00,Acu-Link.com,2013-02-12 19:11:00,
2013-02-12 14:27:00,37.4,36.9,29.69,ESE,112,2.7,-999.0,98,-99.99,,,0.00,Acu-Link.com,2013-02-12 19:27:00,
2013-02-12 14:42:00,37.4,36.9,29.69,West,270,5.1,-999.0,98,-99.99,,,0.00,Acu-Link.com,2013-02-12 19:42:00,
2013-02-12 14:57:00,37.4,36.9,29.70,NW,315,4.0,-999.0,98,-99.99,,,0.00,Acu-Link.com,2013-02-12 19:57:00,
2013-02-12 15:12:00,37.4,36.9,29.70,WNW,292,4.7,-999.0,98,-99.99,,,0.00,Acu-Link.com,2013-02-12 20:12:00,
2013-02-12 15:28:00,37.4,36.9,29.70,WNW,292,5.1,-999.0,98,-99.99,,,0.00,Acu-Link.com,2013-02-12 20:28:00,
2013-02-12 15:43:00,37.4,36.9,29.69,SW,225,2.0,-999.0,98,-99.99,,,0.00,Acu-Link.com,2013-02-12 20:43:00,
2013-02-12 15:58:00,37.4,36.9,29.69,ESE,112,2.7,-999.0,98,-99.99,,,0.00,Acu-Link.com,2013-02-12 20:58:00,
2013-02-12 16:13:00,37.4,36.9,29.69,WNW,292,0.0,-999.0,98,-99.99,,,0.00,Acu-Link.com,2013-02-12 21:13:00,
2013-02-12 16:29:00,37.4,36.9,29.69,NNE,22,3.6,-999.0,98,-99.99,,,0.00,Acu-Link.com,2013-02-12 21:29:00,
2013-02-12 16:44:00,37.4,36.9,29.69,NNE,22,0.0,-999.0,98,-99.99,,,0.00,Acu-Link.com,2013-02-12 21:44:00,
2013-02-12 16:59:00,35.6,35.1,29.68,WNW,292,2.7,-999.0,98,-99.99,,,0.00,Acu-Link.com,2013-02-12 21:59:00,
2013-02-12 17:15:00,35.6,35.1,29.67,SSW,202,0.0,-999.0,98,-99.99,,,0.00,Acu-Link.com,2013-02-12 22:15:00,
2013-02-12 17:30:00,35.6,35.1,29.67,West,270,2.7,-999.0,98,-99.99,,,0.00,Acu-Link.com,2013-02-12 22:30:00,
2013-02-12 17:45:00,35.6,35.1,29.68,WSW,247,1.1,-999.0,98,-99.99,,,0.00,Acu-Link.com,2013-02-12 22:45:00,
2013-02-12 18:00:00,35.6,35.1,29.69,West,270,2.7,-999.0,98,-99.99,,,0.00,Acu-Link.com,2013-02-12 23:00:00,
2013-02-12 18:16:00,35.6,35.1,29.71,SW,225,2.0,-999.0,98,-99.99,,,0.00,Acu-Link.com,2013-02-12 23:16:00,
2013-02-12 18:31:00,35.6,35.1,29.73,NW,315,1.6,-999.0,98,-99.99,,,0.00,Acu-Link.com,2013-02-12 23:31:00,
2013-02-12 18:46:00,35.6,35.1,29.73,West,270,4.7,-999.0,98,-99.99,,,0.00,Acu-Link.com,2013-02-12 23:46:00,
2013-02-12 19:01:00,35.6,35.1,29.76,West,270,4.7,-999.0,98,-99.99,,,0.00,Acu-Link.com,2013-02-13 00:01:00,
2013-02-12 19:16:00,35.6,35.1,29.77,NNW,337,1.6,-999.0,98,-99.99,,,0.00,Acu-Link.com,2013-02-13 00:16:00,
2013-02-12 19:32:00,35.6,34.8,29.78,West,270,2.0,-999.0,97,-99.99,,,0.00,Acu-Link.com,2013-02-13 00:32:00,
2013-02-12 19:47:00,35.6,35.1,29.78,West,270,1.6,-999.0,98,-99.99,,,0.00,Acu-Link.com,2013-02-13 00:47:00,
2013-02-12 20:02:00,35.6,35.1,29.79,WNW,292,3.1,-999.0,98,-99.99,,,0.00,Acu-Link.com,2013-02-13 01:02:00,
2013-02-12 20:17:00,35.6,35.1,29.79,North,0,2.7,-999.0,98,-99.99,,,0.00,Acu-Link.com,2013-02-13 01:17:00,
2013-02-12 20:33:00,35.6,35.1,29.79,NNW,337,1.1,-999.0,98,-99.99,,,0.00,Acu-Link.com,2013-02-13 01:33:00,
2013-02-12 20:48:00,33.8,33.3,29.78,West,270,0.0,-999.0,98,-99.99,,,0.00,Acu-Link.com,2013-02-13 01:48:00,
2013-02-12 21:03:00,33.8,33.3,29.76,WSW,247,0.0,-999.0,98,-99.99,,,0.00,Acu-Link.com,2013-02-13 02:03:00,
2013-02-12 21:19:00,33.8,33.3,29.75,NNE,22,0.0,-999.0,98,-99.99,,,0.00,Acu-Link.com,2013-02-13 02:19:00,
2013-02-12 21:34:00,33.8,33.3,29.76,East,90,0.0,-999.0,98,-99.99,,,0.00,Acu-Link.com,2013-02-13 02:34:00,
2013-02-12 21:49:00,33.8,33.3,29.75,NNE,22,4.7,-999.0,98,-99.99,,,0.00,Acu-Link.com,2013-02-13 02:49:00,
2013-02-12 22:04:00,33.8,33.3,29.75,NNE,22,0.0,-999.0,98,-99.99,,,0.00,Acu-Link.com,2013-02-13 03:04:00,
2013-02-12 22:19:00,33.8,33.3,29.75,WSW,247,0.0,-999.0,98,-99.99,,,0.00,Acu-Link.com,2013-02-13 03:19:00,
2013-02-12 22:35:00,33.8,33.3,29.75,NNW,337,0.0,-999.0,98,-99.99,,,0.00,Acu-Link.com,2013-02-13 03:35:00,
2013-02-12 22:50:00,33.8,33.3,29.75,West,270,0.0,-999.0,98,-99.99,,,0.00,Acu-Link.com,2013-02-13 03:50:00,
2013-02-12 23:05:00,32.0,31.5,29.75,WSW,247,0.0,-999.0,98,-99.99,,,0.00,Acu-Link.com,2013-02-13 04:05:00,
2013-02-12 23:20:00,33.8,33.3,29.74,SW,225,3.1,-999.0,98,-99.99,,,0.00,Acu-Link.com,2013-02-13 04:20:00,
2013-02-12 23:36:00,33.8,33.3,29.74,SW,225,0.0,-999.0,98,-99.99,,,0.00,Acu-Link.com,2013-02-13 04:36:00,
2013-02-12 23:51:00,33.8,33.3,29.74,SW,225,1.6,-999.0,98,-99.99,,,0.00,Acu-Link.com,2013-02-13 04:51:00,